Wind_Speed
15 17 18 19 20 20 21 19 18 17 17 18 18 18 16 14 12 12 12 14 16 14 12 10 7 5 3 2 7 11 18 11 2 12 10 12 14 11 10 13 9 6 7 5 19
14 16 17 18 20 21 22 22 20 20 19 18 18 19 19 18 15 14 9 15 15 14 14 11 9 7 5 4 6 5 7 7 16 6 12 13 11 8 11 12 12 14 14 8 18
16 15 16 16 17 18 19 20 21 21 21 21 20 18 19 18 14 12 12 11 15 13 14 13 10 9 8 9 8 7 11 1 5 9 2 5 3 9 12 9 16 14 9 13 18
20 19 19 18 18 18 18 19 20 20 21 21 21 20 18 17 6 6 8 8 13 15 17 15 14 13 13 12 9 12 15 7 16 10 4 5 8 5 10 4 18 5 6 12 19
23 23 23 23 23 23 22 22 22 21 21 21 21 21 19 22 20 11 12 12 13 18 19 20 17 15 17 15 17 16 15 15 20 7 7 4 4 8 5 9 11 6 7 13 19
24 25 26 26 26 26 26 26 25 24 23 22 21 22 22 26 15 14 20 17 14 17 19 21 19 15 16 18 18 19 19 11 14 10 10 8 7 6 13 19 14 8 7 16 21
20 22 25 27 28 28 28 27 25 24 24 23 23 24 26 21 16 15 18 14 14 16 19 22 21 17 16 18 20 18 19 19 15 15 15 10 12 13 15 13 12 14 16 21 23
18 19 21 23 26 29 28 27 26 25 25 24 24 26 30 17 22 22 19 16 16 16 20 18 18 22 22 21 24 13 19 21 15 17 16 14 15 15 18 14 16 18 20 22 24
18 19 19 21 22 23 26 28 26 25 25 25 24 27 29 17 28 25 24 17 19 16 19 18 20 23 22 22 25 20 22 20 23 16 18 19 17 13 14 17 19 20 21 23 25
19 19 19 20 20 20 20 23 26 24 25 26 26 25 21 14 20 22 22 22 20 19 20 21 22 25 26 27 27 22 14 9 21 17 14 12 11 16 16 20 20 22 22 23 25
19 19 20 20 19 18 17 17 15 19 29 30 23 25 7 6 10 19 24 23 22 23 27 26 26 29 25 25 17 2 7 4 2 26 23 20 18 20 19 22 21 23 24 24 25
20 20 21 22 19 18 15 14 12 20 25 24 31 30 26 12 17 19 23 28 27 30 26 26 33 26 24 19 17 20 21 7 10 31 33 22 23 21 22 23 22 23 24 25 25
20 20 19 21 19 17 14 13 21 23 28 34 30 31 30 22 23 21 26 30 31 31 30 33 32 23 26 19 13 12 19 19 9 33 40 30 35 28 24 22 20 22 24 25 27
20 19 18 19 18 14 11 12 13 12 14 27 22 35 29 31 30 24 24 31 32 36 31 32 27 30 23 26 21 15 17 17 4 28 32 15 22 35 28 24 23 22 24 26 27
21 20 19 18 16 13 13 7 6 4 7 5 19 10 31 36 30 29 27 29 37 33 30 33 32 30 27 26 21 24 27 10 9 29 43 39 31 31 33 27 27 24 24 26 27
20 19 18 17 15 13 9 6 10 5 14 4 17 14 23 31 33 19 32 31 30 31 33 30 29 30 28 20 24 23 19 13 13 32 21 42 35 32 39 32 29 26 25 25 27
20 19 17 15 13 9 7 11 5 14 7 7 13 13 20 26 32 33 31 34 36 37 39 38 32 31 25 30 10 30 19 10 9 14 17 27 31 21 42 34 31 28 27 25 27
21 18 15 12 9 6 9 12 13 10 18 11 7 14 17 22 27 35 31 35 36 36 34 36 35 35 29 28 32 24 18 10 9 10 16 33 18 24 25 31 30 27 28 27 27
21 17 11 6 6 6 15 17 14 16 13 11 11 15 17 19 22 30 37 39 37 37 40 39 38 30 33 22 24 21 19 16 3 5 8 15 18 29 18 33 34 31 30 33 30
17 16 4 12 8 6 15 24 19 19 16 14 13 12 14 18 24 27 32 36 33 36 38 36 27 24 29 26 20 19 19 14 3 3 6 15 23 22 21 21 33 34 40 37 34
14 9 12 17 13 9 14 14 16 17 10 10 15 17 19 23 21 28 26 33 33 32 35 38 24 34 21 29 27 20 24 7 7 6 3 6 8 15 5 15 22 26 25 40 34
10 4 18 20 11 7 13 13 13 17 17 16 16 19 20 13 15 12 23 26 29 32 39 37 37 34 37 24 29 26 33 26 16 10 9 4 29 19 6 17 10 22 33 27 26
9 5 14 16 8 11 15 18 15 17 18 18 18 19 15 14 11 13 16 19 20 30 36 36 38 27 20 33 16 16 29 21 22 17 17 12 17 24 12 4 12 16 27 21 28
7 7 8 12 8 13 13 14 15 13 16 16 20 19 22 21 16 17 15 15 13 20 25 35 39 35 24 32 25 19 25 30 30 19 15 29 20 21 24 9 11 17 21 8 34
6 7 9 9 15 16 12 15 17 16 11 13 13 20 19 22 22 22 19 21 17 17 20 19 39 41 39 34 39 23 33 31 35 34 28 26 27 16 28 22 10 13 15 2 19
14 15 13 18 14 17 16 16 17 15 15 15 12 12 16 21 22 21 17 23 20 15 23 23 28 31 34 29 39 22 26 30 21 22 30 29 24 11 16 21 25 14 28 14 13
14 13 16 13 11 12 16 14 16 12 15 14 12 16 15 9 8 17 16 17 17 15 15 30 29 29 31 30 39 14 29 26 35 31 31 32 27 27 24 15 34 30 16 22 17
Wind_Direction
273 268 264 261 260 258 254 253 256 259 260 261 264 263 263 265 267 257 246 233 229 230 243 249 260 265 294 324 296 324 299 36 331 330 77 131 105 145 103 121 125 128 227 160 167
279 272 268 266 264 262 258 255 257 261 261 261 263 264 262 264 263 257 243 245 235 230 236 249 248 245 264 279 305 297 351 258 295 235 288 150 137 136 146 136 129 127 170 177 169
277 277 273 268 263 262 261 259 262 265 265 262 263 264 263 262 268 280 258 246 238 227 224 236 243 246 251 261 264 251 227 223 5 205 18 123 131 136 159 169 164 153 146 155 166
274 272 269 266 263 261 259 259 262 266 267 265 263 261 259 252 234 234 237 252 231 221 215 215 224 240 246 255 259 260 270 239 284 120 266 236 195 156 139 217 173 170 151 157 165
276 272 268 264 262 261 261 263 265 265 265 265 263 260 255 246 214 281 277 261 236 217 216 209 224 234 242 252 256 256 266 279 311 227 224 262 121 150 198 208 213 204 156 163 168
279 275 272 268 265 263 262 263 263 264 264 262 260 257 252 248 214 249 268 248 237 221 218 204 226 231 250 256 267 278 250 286 268 240 224 228 203 186 148 152 176 208 158 169 173
292 286 278 272 269 266 264 262 261 261 260 259 257 255 249 234 186 219 273 237 232 230 216 206 226 235 251 261 262 265 270 278 256 245 219 204 213 196 185 173 185 174 168 174 177
302 295 289 282 273 267 264 263 261 258 257 256 256 257 253 231 217 207 194 242 243 234 218 217 225 239 250 269 266 272 260 263 253 214 214 206 208 197 180 187 190 177 176 181 183
315 306 296 287 282 276 267 260 258 257 254 253 255 257 258 235 229 226 223 219 229 230 218 206 232 241 251 253 257 255 258 255 277 225 211 208 212 173 192 192 192 187 186 185 184
320 314 306 296 290 282 274 265 257 255 254 250 246 253 249 252 229 222 213 214 214 215 224 220 227 235 241 248 250 251 315 349 294 222 3 204 204 182 199 194 195 191 191 188 188
320 316 312 305 300 289 280 272 269 272 257 247 252 249 175 302 211 222 212 208 203 214 217 217 224 230 234 240 252 18 350 355 343 215 258 219 196 192 196 195 194 193 195 191 190
322 320 318 312 311 299 284 263 210 233 255 247 237 241 210 196 226 211 204 204 203 214 214 220 225 231 236 245 246 264 283 354 241 236 256 253 279 190 191 193 195 195 196 192 188
324 320 318 313 314 305 288 263 236 254 260 250 242 232 227 214 217 214 203 206 208 212 215 221 227 228 233 217 252 289 251 268 252 228 232 269 258 216 191 190 192 195 198 194 191
326 321 320 312 313 310 295 273 258 261 282 266 245 238 221 218 226 212 214 209 214 219 222 228 233 239 231 222 224 221 243 270 198 208 249 258 222 194 182 190 190 191 196 192 194
329 325 320 313 308 300 267 272 244 193 275 345 194 222 208 211 216 223 198 212 217 218 220 230 233 234 225 247 234 241 248 239 255 229 249 268 234 212 183 188 192 192 191 191 194
329 326 320 315 306 292 276 231 161 213 244 200 171 191 195 212 215 215 205 209 220 222 225 233 232 235 238 229 240 254 183 203 195 226 238 253 259 219 185 188 191 194 192 190 194
326 326 319 316 314 293 231 170 206 231 245 215 199 209 213 211 211 211 208 208 212 216 226 229 233 234 237 216 235 174 205 207 186 229 240 250 239 233 197 188 189 193 194 192 196
323 324 316 313 304 269 203 182 236 249 242 290 223 204 207 205 214 212 213 214 215 217 221 227 231 220 232 222 212 238 231 293 213 231 235 240 297 215 176 176 180 196 198 196 195
325 323 305 311 313 239 192 212 228 247 326 311 275 244 214 212 215 209 219 216 217 215 223 227 235 230 212 228 197 195 223 250 122 359 290 251 245 239 222 197 187 201 203 202 201
332 329 276 347 325 244 210 235 251 257 301 282 282 268 235 232 218 209 217 220 220 221 221 230 240 231 221 211 211 212 225 224 133 210 244 252 275 173 222 207 188 202 203 202 201
340 3 285 312 310 246 233 257 269 268 271 279 259 273 283 262 257 225 224 223 221 222 222 229 238 253 258 216 177 168 168 157 173 149 158 324 249 94 214 142 269 213 209 201 194
341 358 287 299 293 263 259 266 267 263 264 260 265 259 282 292 269 260 229 223 223 223 224 226 233 214 259 240 221 218 205 208 212 190 185 201 277 277 330 237 242 241 205 198 191
349 270 300 333 264 275 280 270 277 265 263 257 256 250 259 275 283 270 271 241 240 221 224 225 228 232 199 237 268 208 193 210 200 192 187 188 251 275 264 188 268 123 137 161 180
359 358 281 303 306 280 294 283 284 273 266 259 252 254 247 252 249 260 273 253 254 235 224 225 231 231 213 217 233 249 238 226 218 204 212 235 269 255 252 310 271 146 140 107 195
358 278 296 280 277 296 288 281 280 281 276 261 261 242 246 247 249 248 256 266 273 265 248 237 233 239 245 222 199 235 237 273 223 228 222 236 214 258 289 247 230 219 235 222 173
316 298 261 276 295 297 289 285 279 273 267 280 251 262 244 242 240 249 268 254 265 265 256 238 241 240 245 208 209 211 236 252 261 277 227 248 242 237 241 226 225 275 241 197 195
320 312 304 292 301 284 287 305 269 290 266 263 271 278 267 271 267 248 269 265 272 289 269 232 233 237 251 252 180 172 222 253 244 245 273 235 242 239 230 257 219 253 272 247 216
Height
3143 3143 3143 3142 3142 3143 3143 3144 3144 3144 3144 3145 3144 3144 3144 3144 3144 3144 3144 3145 3145 3147 3148 3148 3149 3149 3150 3149 3150 3153 3149 3150 3150 3143 3145 3146 3146 3152 3154 3154 3155 3157 3154 3157 3161
3140 3139 3139 3139 3139 3139 3140 3141 3141 3142 3142 3142 3142 3141 3141 3141 3142 3141 3143 3143 3144 3146 3147 3148 3148 3149 3150 3149 3151 3153 3151 3148 3151 3151 3145 3149 3150 3151 3153 3153 3154 3155 3156 3158 3161
3137 3136 3136 3136 3136 3136 3136 3137 3138 3138 3139 3139 3139 3139 3138 3139 3140 3139 3140 3140 3142 3144 3145 3146 3147 3148 3149 3150 3151 3152 3148 3146 3142 3147 3137 3148 3146 3151 3151 3151 3150 3151 3154 3157 3161
3133 3133 3133 3133 3133 3133 3133 3133 3134 3134 3135 3135 3135 3136 3135 3136 3141 3136 3137 3138 3139 3141 3143 3145 3147 3148 3149 3149 3149 3151 3148 3150 3151 3137 3150 3147 3145 3149 3147 3147 3149 3151 3154 3157 3161
3129 3129 3129 3128 3129 3129 3129 3130 3130 3130 3130 3131 3131 3131 3132 3131 3132 3134 3136 3136 3137 3139 3140 3144 3145 3147 3147 3147 3144 3147 3150 3145 3141 3150 3150 3147 3145 3148 3150 3149 3155 3152 3153 3156 3161
3125 3124 3124 3124 3124 3124 3124 3125 3125 3126 3126 3126 3126 3126 3127 3126 3132 3131 3132 3134 3135 3136 3138 3141 3144 3146 3146 3145 3146 3143 3143 3145 3146 3146 3146 3147 3148 3150 3153 3154 3154 3152 3153 3156 3161
3120 3119 3118 3118 3118 3118 3119 3119 3120 3121 3121 3121 3122 3121 3120 3122 3126 3134 3131 3131 3132 3134 3135 3138 3144 3146 3145 3146 3146 3144 3141 3142 3142 3142 3143 3146 3148 3149 3152 3153 3150 3151 3153 3157 3161
3117 3115 3113 3112 3111 3111 3112 3113 3114 3115 3116 3116 3116 3115 3111 3120 3122 3124 3126 3131 3129 3131 3133 3138 3142 3143 3144 3146 3144 3141 3144 3140 3136 3139 3142 3144 3144 3146 3148 3152 3151 3153 3155 3157 3161
3113 3111 3109 3107 3106 3105 3105 3106 3108 3110 3110 3111 3112 3110 3107 3114 3113 3118 3123 3126 3131 3130 3131 3135 3141 3141 3143 3144 3142 3141 3140 3134 3126 3128 3140 3140 3141 3142 3145 3150 3151 3153 3154 3156 3160
3110 3107 3105 3102 3101 3100 3099 3099 3102 3104 3105 3105 3106 3108 3109 3107 3110 3114 3119 3124 3129 3131 3133 3134 3137 3137 3137 3137 3136 3135 3135 3132 3124 3130 3132 3139 3138 3141 3144 3147 3150 3152 3153 3155 3158
3107 3104 3101 3098 3097 3095 3096 3097 3100 3101 3096 3098 3100 3101 3103 3107 3110 3110 3115 3120 3125 3128 3128 3131 3133 3130 3131 3131 3129 3122 3131 3136 3139 3136 3146 3140 3136 3138 3142 3145 3148 3150 3151 3152 3155
3104 3101 3098 3095 3094 3092 3091 3092 3093 3091 3087 3088 3091 3093 3098 3103 3107 3109 3113 3117 3120 3121 3125 3128 3124 3127 3129 3128 3128 3130 3133 3139 3141 3140 3135 3131 3129 3136 3139 3142 3144 3147 3148 3150 3153
3101 3098 3096 3092 3090 3089 3087 3088 3086 3086 3083 3080 3081 3084 3090 3098 3101 3104 3109 3112 3114 3118 3118 3119 3120 3123 3125 3123 3126 3131 3133 3137 3140 3139 3130 3129 3132 3134 3135 3139 3141 3144 3146 3148 3150
3097 3094 3092 3089 3089 3085 3084 3084 3084 3085 3082 3071 3071 3072 3085 3091 3094 3099 3104 3109 3111 3112 3115 3115 3118 3118 3121 3119 3120 3124 3134 3135 3139 3137 3137 3131 3128 3127 3127 3134 3137 3141 3142 3144 3147
3095 3091 3089 3085 3084 3084 3083 3082 3084 3086 3083 3065 3066 3073 3076 3083 3090 3091 3096 3103 3103 3107 3113 3110 3112 3113 3116 3120 3116 3120 3119 3132 3141 3146 3141 3129 3124 3116 3119 3128 3132 3137 3138 3141 3144
3091 3088 3084 3083 3080 3080 3080 3081 3084 3091 3074 3067 3066 3071 3076 3079 3083 3090 3092 3098 3102 3105 3106 3106 3108 3109 3111 3115 3115 3122 3124 3129 3133 3133 3137 3116 3109 3110 3111 3118 3127 3133 3135 3138 3142
3088 3084 3081 3078 3078 3077 3078 3081 3087 3079 3069 3065 3066 3068 3072 3074 3079 3083 3087 3089 3093 3098 3097 3100 3100 3103 3107 3108 3113 3119 3110 3120 3125 3124 3116 3106 3104 3100 3104 3112 3121 3129 3133 3136 3139
3084 3081 3078 3077 3074 3075 3077 3082 3081 3068 3067 3062 3063 3063 3068 3071 3074 3078 3081 3083 3087 3091 3093 3094 3093 3096 3101 3098 3109 3113 3116 3120 3122 3111 3105 3104 3105 3098 3106 3110 3116 3126 3130 3134 3137
3080 3078 3076 3074 3073 3073 3076 3077 3072 3067 3067 3064 3063 3063 3063 3066 3069 3073 3075 3076 3081 3085 3086 3087 3086 3088 3093 3099 3098 3107 3109 3117 3113 3118 3120 3108 3103 3099 3103 3107 3112 3118 3126 3129 3133
3077 3073 3074 3073 3073 3073 3073 3071 3070 3069 3070 3068 3065 3062 3062 3062 3064 3065 3068 3071 3074 3079 3082 3082 3083 3084 3091 3096 3095 3100 3106 3116 3113 3120 3119 3105 3101 3094 3102 3100 3107 3112 3117 3121 3127
3076 3073 3072 3072 3071 3070 3071 3070 3070 3068 3070 3070 3068 3064 3061 3057 3056 3058 3061 3067 3069 3073 3078 3080 3083 3077 3088 3083 3082 3093 3098 3108 3113 3118 3117 3119 3100 3102 3107 3098 3114 3113 3112 3117 3120
3075 3076 3071 3071 3071 3069 3069 3069 3069 3067 3066 3067 3067 3066 3062 3057 3055 3054 3056 3060 3065 3068 3069 3073 3078 3084 3080 3086 3085 3085 3089 3092 3105 3114 3114 3119 3090 3097 3106 3107 3100 3100 3108 3114 3116
3073 3072 3071 3071 3069 3069 3068 3066 3066 3065 3065 3065 3064 3064 3061 3059 3060 3057 3054 3055 3057 3061 3063 3068 3070 3073 3087 3083 3080 3085 3080 3085 3091 3097 3103 3106 3095 3091 3095 3095 3100 3088 3085 3103 3109
3074 3076 3074 3069 3067 3067 3066 3064 3063 3062 3061 3062 3061 3061 3061 3060 3060 3059 3057 3054 3054 3056 3059 3061 3061 3061 3061 3070 3081 3082 3081 3084 3085 3086 3092 3091 3085 3089 3083 3094 3095 3086 3087 3090 3107
3075 3075 3073 3068 3066 3065 3063 3063 3062 3059 3057 3057 3058 3058 3059 3059 3059 3059 3058 3053 3052 3051 3051 3054 3054 3056 3056 3056 3069 3075 3078 3077 3077 3078 3079 3084 3087 3085 3092 3104 3109 3110 3101 3091 3103
3070 3067 3065 3061 3062 3064 3062 3060 3058 3057 3057 3055 3055 3055 3056 3057 3057 3057 3057 3054 3052 3052 3051 3052 3051 3054 3054 3058 3062 3066 3081 3080 3076 3075 3076 3081 3086 3086 3084 3089 3097 3104 3093 3094 3108
3068 3065 3062 3060 3060 3061 3060 3055 3053 3052 3052 3053 3053 3053 3050 3051 3048 3047 3047 3047 3048 3048 3046 3048 3049 3051 3051 3053 3057 3065 3078 3073 3074 3071 3073 3075 3082 3083 3087 3088 3090 3098 3102 3079 3103